| time (UTC) | temp C | wind direction | speed KPH | gust KPH | rain 1hr cm | rain 24hr cm | rain mn cm | humidity % | barometer mb |
| 20260504184501 | 24 | 108 | 3.2 | 6.4 | 0.00 | 0.00 | 0.00 | 31 | 1010.2 |
| 20260504184001 | 24 | 351 | 3.2 | 6.4 | 0.00 | 0.00 | 0.00 | 32 | 1010.2 |
| 20260504183502 | 24 | 22 | 3.2 | 8.0 | 0.00 | 0.00 | 0.00 | 31 | 1010.2 |
| 20260504183002 | 24 | 279 | 3.2 | 4.8 | 0.00 | 0.00 | 0.00 | 32 | 1010.2 |
| 20260504182501 | 24 | 133 | 3.2 | 6.4 | 0.00 | 0.00 | 0.00 | 31 | 1010.2 |
| 20260504182001 | 24 | 67 | 3.2 | 6.4 | 0.00 | 0.00 | 0.00 | 32 | 1010.2 |
| 20260504181506 | 23 | 91 | 1.6 | 4.8 | 0.00 | 0.00 | 0.00 | 32 | 1010.2 |
| 20260504181001 | 23 | 135 | 3.2 | 6.4 | 0.00 | 0.00 | 0.00 | 33 | 1010.2 |
| 20260504180506 | 22 | 337 | 3.2 | 6.4 | 0.00 | 0.00 | 0.00 | 34 | 1010.2 |
| 20260504180002 | 22 | 325 | 3.2 | 6.4 | 0.00 | 0.00 | 0.00 | 34 | 1010.2 |
| 20260504175502 | 22 | 354 | 3.2 | 6.4 | 0.00 | 0.00 | 0.00 | 35 | 1010.5 |
| 20260504175001 | 22 | 350 | 3.2 | 8.0 | 0.00 | 0.00 | 0.00 | 36 | 1010.5 |
| 20260504174501 | 21 | 331 | 3.2 | 6.4 | 0.00 | 0.00 | 0.00 | 36 | 1010.5 |
| 20260504174001 | 21 | 38 | 3.2 | 6.4 | 0.00 | 0.00 | 0.00 | 38 | 1010.5 |
| 20260504173501 | 21 | 334 | 3.2 | 6.4 | 0.00 | 0.00 | 0.00 | 38 | 1010.5 |
| 20260504173006 | 21 | 327 | 3.2 | 6.4 | 0.00 | 0.00 | 0.00 | 38 | 1010.5 |
| 20260504172506 | 20 | 308 | 3.2 | 4.8 | 0.00 | 0.00 | 0.00 | 39 | 1010.5 |
| 20260504172000 | 20 | 317 | 3.2 | 6.4 | 0.00 | 0.00 | 0.00 | 39 | 1010.5 |
| 20260504171501 | 20 | 312 | 3.2 | 6.4 | 0.00 | 0.00 | 0.00 | 39 | 1010.5 |
| 20260504171000 | 20 | 43 | 1.6 | 3.2 | 0.00 | 0.00 | 0.00 | 41 | 1010.5 |
| 20260504170512 | 19 | 320 | 3.2 | 4.8 | 0.00 | 0.00 | 0.00 | 41 | 1010.5 |
| 20260504151011 | 13 | 344 | 1.6 | 3.2 | 0.00 | 0.00 | 0.00 | 70 | 1011.2 |
| 20260504150502 | 12 | 260 | 1.6 | 1.6 | 0.00 | 0.00 | 0.00 | 72 | 1011.2 |
| 20260504141001 | 8 | 128 | 0.0 | 0.0 | 0.00 | 0.00 | 0.00 | 88 | 1010.9 |
| 20260504140501 | 8 | 132 | 0.0 | 1.6 | 0.00 | 0.00 | 0.00 | 89 | 1010.9 |
| 20260504130501 | 7 | 97 | 0.0 | 0.0 | 0.00 | 0.00 | 0.00 | 90 | 1010.5 |
| 20260504110501 | 8 | 313 | 0.0 | 0.0 | 0.00 | 0.00 | 0.00 | 85 | 1010.2 |
| 20260504100511 | 9 | 30 | 0.0 | 0.0 | 0.00 | 0.00 | 0.00 | 82 | 1009.8 |
| 20260504081510 | 12 | 4 | 0.0 | 0.0 | 0.00 | 0.00 | 0.00 | 75 | 1009.8 |
| 20260504081006 | 12 | 4 | 0.0 | 0.0 | 0.00 | 0.00 | 0.00 | 74 | 1009.8 |
| 20260504080507 | 12 | 4 | 0.0 | 0.0 | 0.00 | 0.00 | 0.00 | 73 | 1009.8 |
| 20260504050502 | 17 | 50 | 0.0 | 0.0 | 0.00 | 0.00 | 0.00 | 55 | 1009.5 |
| 20260504050006 | 17 | 50 | 0.0 | 0.0 | 0.00 | 0.00 | 0.00 | 52 | 1009.5 |
| 20260504045501 | 17 | 50 | 0.0 | 0.0 | 0.00 | 0.00 | 0.00 | 52 | 1009.5 |
| 20260504045007 | 18 | 50 | 0.0 | 1.6 | 0.00 | 0.00 | 0.00 | 51 | 1009.5 |
| 20260504044501 | 18 | 51 | 1.6 | 3.2 | 0.00 | 0.00 | 0.00 | 50 | 1009.5 |
| 20260504044001 | 18 | 54 | 0.0 | 3.2 | 0.00 | 0.00 | 0.00 | 50 | 1009.5 |
| 20260504043500 | 18 | 134 | 0.0 | 0.0 | 0.00 | 0.00 | 0.00 | 48 | 1009.5 |
| 20260504043004 | 18 | 133 | 0.0 | 1.6 | 0.00 | 0.00 | 0.00 | 47 | 1009.5 |
| 20260504042001 | 19 | 199 | 0.0 | 0.0 | 0.00 | 0.00 | 0.00 | 47 | 1009.5 |
| 20260504041502 | 19 | 199 | 0.0 | 0.0 | 0.00 | 0.00 | 0.00 | 45 | 1009.5 |
| 20260504041001 | 19 | 199 | 0.0 | 0.0 | 0.00 | 0.00 | 0.00 | 45 | 1009.5 |
| 20260504040501 | 19 | 199 | 0.0 | 0.0 | 0.00 | 0.00 | 0.00 | 45 | 1009.3 |
| 20260504040001 | 20 | 203 | 0.0 | 1.6 | 0.00 | 0.00 | 0.00 | 45 | 1009.2 |
| 20260504035502 | 20 | 200 | 0.0 | 1.6 | 0.00 | 0.00 | 0.00 | 46 | 1009.1 |
| 20260504035006 | 20 | 209 | 0.0 | 1.6 | 0.00 | 0.00 | 0.00 | 44 | 1009.1 |
| 20260504034501 | 20 | 222 | 0.0 | 1.6 | 0.00 | 0.00 | 0.00 | 43 | 1009.1 |
| 20260504034001 | 21 | 221 | 0.0 | 0.0 | 0.00 | 0.00 | 0.00 | 41 | 1009.1 |
| 20260504033501 | 21 | 223 | 0.0 | 0.0 | 0.00 | 0.00 | 0.00 | 40 | 1009.1 |
| 20260504033001 | 21 | 221 | 0.0 | 0.0 | 0.00 | 0.00 | 0.00 | 40 | 1009.1 |
| 20260504032501 | 21 | 221 | 0.0 | 1.6 | 0.00 | 0.00 | 0.00 | 38 | 1009.1 |
| 20260504032007 | 22 | 222 | 0.0 | 1.6 | 0.00 | 0.00 | 0.00 | 40 | 1009.1 |
| 20260504031506 | 22 | 218 | 1.6 | 1.6 | 0.00 | 0.00 | 0.00 | 38 | 1009.1 |
| 20260504031008 | 23 | 249 | 0.0 | 1.6 | 0.00 | 0.00 | 0.00 | 35 | 1009.0 |
| 20260504030508 | 23 | 251 | 0.0 | 0.0 | 0.00 | 0.00 | 0.00 | 34 | 1009.0 |
| 20260504030006 | 23 | 251 | 0.0 | 0.0 | 0.00 | 0.00 | 0.00 | 33 | 1008.9 |
| 20260504025502 | 24 | 251 | 0.0 | 0.0 | 0.00 | 0.00 | 0.00 | 33 | 1008.8 |
| 20260504025008 | 25 | 253 | 0.0 | 0.0 | 0.00 | 0.00 | 0.00 | 32 | 1008.8 |
| 20260504024501 | 25 | 254 | 0.0 | 0.0 | 0.00 | 0.00 | 0.00 | 30 | 1008.8 |
| 20260504023502 | 26 | 257 | 0.0 | 1.6 | 0.00 | 0.00 | 0.00 | 27 | 1008.8 |
| 20260504023001 | 26 | 258 | 3.2 | 3.2 | 0.00 | 0.00 | 0.00 | 25 | 1008.8 |
| 20260504022502 | 26 | 250 | 1.6 | 3.2 | 0.00 | 0.00 | 0.00 | 25 | 1008.8 |
| 20260504022006 | 26 | 258 | 1.6 | 3.2 | 0.00 | 0.00 | 0.00 | 25 | 1008.8 |
| 20260504021507 | 27 | 271 | 3.2 | 6.4 | 0.00 | 0.00 | 0.00 | 24 | 1009.1 |
| 20260504021002 | 27 | 263 | 3.2 | 4.8 | 0.00 | 0.00 | 0.00 | 24 | 1009.1 |
| 20260504020501 | 27 | 268 | 1.6 | 3.2 | 0.00 | 0.00 | 0.00 | 24 | 1009.1 |
| 20260504020002 | 27 | 297 | 3.2 | 8.0 | 0.00 | 0.00 | 0.00 | 23 | 1009.1 |
| 20260504015501 | 27 | 284 | 3.2 | 8.0 | 0.00 | 0.00 | 0.00 | 23 | 1009.1 |
| 20260504015007 | 27 | 267 | 3.2 | 6.4 | 0.00 | 0.00 | 0.00 | 23 | 1009.1 |
| 20260504014504 | 27 | 291 | 3.2 | 8.0 | 0.00 | 0.00 | 0.00 | 23 | 1009.1 |
| 20260504014002 | 27 | 270 | 3.2 | 4.8 | 0.00 | 0.00 | 0.00 | 23 | 1009.2 |
| 20260504013500 | 27 | 242 | 3.2 | 4.8 | 0.00 | 0.00 | 0.00 | 23 | 1009.5 |
| 20260504013001 | 27 | 294 | 3.2 | 8.0 | 0.00 | 0.00 | 0.00 | 23 | 1009.5 |
| 20260504012506 | 27 | 311 | 3.2 | 6.4 | 0.00 | 0.00 | 0.00 | 23 | 1009.5 |
| 20260504012001 | 27 | 283 | 3.2 | 8.0 | 0.00 | 0.00 | 0.00 | 23 | 1009.5 |
| 20260504011501 | 27 | 274 | 3.2 | 6.4 | 0.00 | 0.00 | 0.00 | 22 | 1009.5 |
| 20260504011002 | 27 | 278 | 4.8 | 8.0 | 0.00 | 0.00 | 0.00 | 22 | 1009.5 |
| 20260504010500 | 27 | 245 | 4.8 | 8.0 | 0.00 | 0.00 | 0.00 | 22 | 1009.5 |
| 20260504010001 | 28 | 283 | 4.8 | 11.3 | 0.00 | 0.00 | 0.00 | 22 | 1009.5 |
| 20260504005500 | 28 | 259 | 1.6 | 4.8 | 0.00 | 0.00 | 0.00 | 22 | 1009.7 |
| 20260504005001 | 27 | 296 | 3.2 | 6.4 | 0.00 | 0.00 | 0.00 | 22 | 1009.8 |
| 20260504004506 | 27 | 282 | 6.4 | 9.7 | 0.00 | 0.00 | 0.00 | 22 | 1009.8 |
| 20260504004006 | 27 | 274 | 6.4 | 12.9 | 0.00 | 0.00 | 0.00 | 22 | 1009.8 |
| 20260504003501 | 28 | 296 | 4.8 | 8.0 | 0.00 | 0.00 | 0.00 | 22 | 1009.8 |
| 20260504003001 | 28 | 280 | 6.4 | 11.3 | 0.00 | 0.00 | 0.00 | 21 | 1009.8 |
| 20260504002506 | 28 | 229 | 1.6 | 3.2 | 0.00 | 0.00 | 0.00 | 21 | 1009.8 |
| 20260504002010 | 28 | 161 | 3.2 | 8.0 | 0.00 | 0.00 | 0.00 | 21 | 1009.8 |
| 20260504001502 | 28 | 202 | 4.8 | 8.0 | 0.00 | 0.00 | 0.00 | 21 | 1010.1 |
| 20260504001007 | 28 | 213 | 3.2 | 8.0 | 0.00 | 0.00 | 0.00 | 21 | 1010.2 |
| 20260504000506 | 28 | 265 | 4.8 | 9.7 | 0.00 | 0.00 | 0.00 | 21 | 1010.2 |
| 20260504000001 | 28 | 256 | 4.8 | 9.7 | 0.00 | 0.00 | 0.00 | 20 | 1010.2 |
| 20260503235506 | 29 | 263 | 4.8 | 8.0 | 0.00 | 0.00 | 0.00 | 20 | 1010.2 |
| 20260503235000 | 29 | 215 | 3.2 | 6.4 | 0.00 | 0.00 | 0.00 | 20 | 1010.2 |
| 20260503234502 | 29 | 231 | 3.2 | 6.4 | 0.00 | 0.00 | 0.00 | 20 | 1010.2 |
| 20260503234006 | 29 | 262 | 1.6 | 6.4 | 0.00 | 0.00 | 0.00 | 20 | 1010.4 |
| 20260503233500 | 28 | 311 | 4.8 | 8.0 | 0.00 | 0.00 | 0.00 | 20 | 1010.5 |
| 20260503233001 | 28 | 111 | 3.2 | 6.4 | 0.00 | 0.00 | 0.00 | 20 | 1010.5 |
| 20260503232506 | 28 | 248 | 3.2 | 9.7 | 0.00 | 0.00 | 0.00 | 20 | 1010.5 |
| 20260503232001 | 28 | 263 | 3.2 | 11.3 | 0.00 | 0.00 | 0.00 | 21 | 1010.5 |
| 20260503231501 | 28 | 235 | 4.8 | 11.3 | 0.00 | 0.00 | 0.00 | 21 | 1010.5 |
| 20260503231002 | 28 | 251 | 4.8 | 11.3 | 0.00 | 0.00 | 0.00 | 20 | 1010.8 |
| 20260503230501 | 28 | 255 | 4.8 | 9.7 | 0.00 | 0.00 | 0.00 | 21 | 1010.8 |
| 20260503230009 | 28 | 274 | 4.8 | 8.0 | 0.00 | 0.00 | 0.00 | 20 | 1010.8 |
| 20260503225502 | 28 | 199 | 3.2 | 8.0 | 0.00 | 0.00 | 0.00 | 20 | 1010.8 |
| 20260503225001 | 28 | 104 | 3.2 | 6.4 | 0.00 | 0.00 | 0.00 | 20 | 1010.8 |
| 20260503224506 | 28 | 306 | 4.8 | 11.3 | 0.00 | 0.00 | 0.00 | 20 | 1011.1 |
| 20260503224001 | 28 | 313 | 6.4 | 11.3 | 0.00 | 0.00 | 0.00 | 20 | 1011.2 |
| 20260503223505 | 28 | 43 | 3.2 | 4.8 | 0.00 | 0.00 | 0.00 | 21 | 1011.2 |
| 20260503223001 | 28 | 331 | 4.8 | 9.7 | 0.00 | 0.00 | 0.00 | 19 | 1011.2 |
| 20260503222501 | 28 | 331 | 6.4 | 11.3 | 0.00 | 0.00 | 0.00 | 19 | 1011.2 |
| 20260503222024 | 29 | 358 | 3.2 | 4.8 | 0.00 | 0.00 | 0.00 | 18 | 1011.2 |
| 20260503221501 | 29 | 256 | 3.2 | 4.8 | 0.00 | 0.00 | 0.00 | 19 | 1011.3 |
| 20260503221001 | 29 | 97 | 3.2 | 6.4 | 0.00 | 0.00 | 0.00 | 19 | 1011.5 |
| 20260503220507 | 28 | 33 | 1.6 | 3.2 | 0.00 | 0.00 | 0.00 | 19 | 1011.5 |
| 20260503220018 | 28 | 193 | 4.8 | 8.0 | 0.00 | 0.00 | 0.00 | 19 | 1011.5 |
| 20260503215511 | 28 | 203 | 4.8 | 9.7 | 0.00 | 0.00 | 0.00 | 19 | 1011.7 |
| 20260503215001 | 28 | 189 | 4.8 | 11.3 | 0.00 | 0.00 | 0.00 | 19 | 1011.9 |
| 20260503214505 | 27 | 249 | 4.8 | 8.0 | 0.00 | 0.00 | 0.00 | 19 | 1011.9 |
| 20260503214011 | 28 | 293 | 4.8 | 9.7 | 0.00 | 0.00 | 0.00 | 18 | 1011.9 |
| 20260503213506 | 28 | 269 | 4.8 | 11.3 | 0.00 | 0.00 | 0.00 | 19 | 1012.0 |
| 20260503213001 | 28 | 315 | 3.2 | 8.0 | 0.00 | 0.00 | 0.00 | 20 | 1012.2 |
| 20260503212501 | 27 | 307 | 4.8 | 11.3 | 0.00 | 0.00 | 0.00 | 20 | 1012.2 |
| 20260503212018 | 28 | 248 | 4.8 | 8.0 | 0.00 | 0.00 | 0.00 | 22 | 1012.2 |
| 20260503211517 | 27 | 227 | 3.2 | 6.4 | 0.00 | 0.00 | 0.00 | 22 | 1012.2 |
| 20260503211002 | 27 | 275 | 3.2 | 8.0 | 0.00 | 0.00 | 0.00 | 22 | 1012.4 |
| 20260503210507 | 27 | 236 | 3.2 | 8.0 | 0.00 | 0.00 | 0.00 | 22 | 1012.5 |
| 20260503210001 | 27 | 197 | 3.2 | 6.4 | 0.00 | 0.00 | 0.00 | 22 | 1012.5 |
| 20260503205505 | 27 | 248 | 3.2 | 6.4 | 0.00 | 0.00 | 0.00 | 23 | 1012.6 |
| 20260503205002 | 27 | 213 | 3.2 | 6.4 | 0.00 | 0.00 | 0.00 | 24 | 1012.9 |
| 20260503204506 | 27 | 207 | 3.2 | 8.0 | 0.00 | 0.00 | 0.00 | 24 | 1012.9 |
| 20260503204000 | 27 | 294 | 4.8 | 9.7 | 0.00 | 0.00 | 0.00 | 24 | 1012.9 |
| 20260503203506 | 26 | 225 | 4.8 | 9.7 | 0.00 | 0.00 | 0.00 | 25 | 1012.9 |
| 20260503203006 | 26 | 301 | 6.4 | 11.3 | 0.00 | 0.00 | 0.00 | 24 | 1012.9 |
| 20260503202508 | 27 | 243 | 4.8 | 8.0 | 0.00 | 0.00 | 0.00 | 24 | 1013.2 |
| 20260503202001 | 26 | 49 | 3.2 | 4.8 | 0.00 | 0.00 | 0.00 | 25 | 1013.2 |
| 20260503201002 | 26 | 127 | 4.8 | 8.0 | 0.00 | 0.00 | 0.00 | 24 | 1013.2 |
| 20260503200501 | 26 | 185 | 3.2 | 6.4 | 0.00 | 0.00 | 0.00 | 25 | 1013.3 |
| 20260503195518 | 26 | 289 | 4.8 | 8.0 | 0.00 | 0.00 | 0.00 | 24 | 1013.5 |
| 20260503195002 | 26 | 274 | 4.8 | 8.0 | 0.00 | 0.00 | 0.00 | 25 | 1013.5 |
| 20260503194501 | 26 | 213 | 4.8 | 6.4 | 0.00 | 0.00 | 0.00 | 25 | 1013.5 |
| 20260503194002 | 26 | 152 | 4.8 | 8.0 | 0.00 | 0.00 | 0.00 | 24 | 1013.5 |
| 20260503193505 | 26 | 169 | 3.2 | 6.4 | 0.00 | 0.00 | 0.00 | 25 | 1013.8 |
| 20260503193006 | 26 | 5 | 3.2 | 4.8 | 0.00 | 0.00 | 0.00 | 25 | 1013.9 |
| 20260503192501 | 25 | 263 | 3.2 | 6.4 | 0.00 | 0.00 | 0.00 | 26 | 1013.9 |
| 20260503192007 | 25 | 240 | 3.2 | 6.4 | 0.00 | 0.00 | 0.00 | 26 | 1013.9 |
| 20260503191507 | 25 | 347 | 3.2 | 6.4 | 0.00 | 0.00 | 0.00 | 27 | 1013.9 |
| 20260503191001 | 24 | 351 | 3.2 | 8.0 | 0.00 | 0.00 | 0.00 | 28 | 1014.2 |
| 20260503190502 | 25 | 307 | 4.8 | 11.3 | 0.00 | 0.00 | 0.00 | 27 | 1014.2 |